Year,Month,Day,Hour,Minute,Value (Times are PST for barometer in hPa)
2019,10,16,00,00,960.04
2019,10,16,00,01,960.04
2019,10,16,00,02,960.04
2019,10,16,00,03,960.04
2019,10,16,00,04,960.04
2019,10,16,00,05,960.04
2019,10,16,00,06,960.04
2019,10,16,00,07,960.04
2019,10,16,00,08,960.04
2019,10,16,00,09,960.04
2019,10,16,00,10,960.04
2019,10,16,00,11,960.04
2019,10,16,00,12,960.04
2019,10,16,00,13,960.04
2019,10,16,00,14,960.04
2019,10,16,00,15,960.04
2019,10,16,00,16,960.04
2019,10,16,00,17,960.04
2019,10,16,00,18,960.04
2019,10,16,00,19,960.04
2019,10,16,00,20,960.04
2019,10,16,00,21,960.04
2019,10,16,00,22,960.04
2019,10,16,00,23,960.04
2019,10,16,00,24,960.04
2019,10,16,00,25,960.04
2019,10,16,00,26,960.04
2019,10,16,00,27,960.04
2019,10,16,00,28,960.04
2019,10,16,00,29,960.04
2019,10,16,00,30,960.04
2019,10,16,00,31,960.04
2019,10,16,00,32,960.04
2019,10,16,00,33,960.04
2019,10,16,00,34,960.04
2019,10,16,00,35,960.04
2019,10,16,00,36,960.04
2019,10,16,00,37,960.04
2019,10,16,00,38,960.04
2019,10,16,00,39,960.04
2019,10,16,00,40,960.04
2019,10,16,00,41,960.04
2019,10,16,00,42,960.04
2019,10,16,00,43,960.04
2019,10,16,00,44,960.04
2019,10,16,00,45,960.04
2019,10,16,00,46,960.04
2019,10,16,00,47,960.04
2019,10,16,00,48,960.04
2019,10,16,00,49,960.04
2019,10,16,00,50,960.04
2019,10,16,00,51,960.04
2019,10,16,00,52,960.04
2019,10,16,00,53,960.04
2019,10,16,00,54,960.04
2019,10,16,00,55,960.04
2019,10,16,00,56,960.04
2019,10,16,00,57,960.04
2019,10,16,00,58,960.04
2019,10,16,00,59,960.04
2019,10,16,01,00,960.04
2019,10,16,01,01,960.04
2019,10,16,01,02,960.04
2019,10,16,01,03,960.04
2019,10,16,01,04,960.04
2019,10,16,01,05,960.04
2019,10,16,01,06,960.04
2019,10,16,01,07,960.04
2019,10,16,01,08,960.04
2019,10,16,01,09,960.04
2019,10,16,01,10,960.04
2019,10,16,01,11,960.04
2019,10,16,01,12,960.04
2019,10,16,01,13,960.04
2019,10,16,01,14,960.04
2019,10,16,01,15,960.04
2019,10,16,01,16,960.04
2019,10,16,01,17,960.04
2019,10,16,01,18,960.04
2019,10,16,01,19,960.04
2019,10,16,01,20,960.04
2019,10,16,01,21,960.04
2019,10,16,01,22,960.04
2019,10,16,01,23,960.04
2019,10,16,01,24,960.04
2019,10,16,01,25,960.04
2019,10,16,01,26,960.04
2019,10,16,01,27,960.04
2019,10,16,01,28,960.04
2019,10,16,01,29,960.04
2019,10,16,01,30,960.04
2019,10,16,01,31,960.04
2019,10,16,01,32,960.04
2019,10,16,01,33,960.04
2019,10,16,01,34,960.04
2019,10,16,01,35,960.04
2019,10,16,01,36,960.04
2019,10,16,01,37,960.04
2019,10,16,01,38,960.04
2019,10,16,01,39,960.04
2019,10,16,01,40,960.04
2019,10,16,01,41,960.04
2019,10,16,01,42,960.04
2019,10,16,01,43,960.04
2019,10,16,01,44,960.04
2019,10,16,01,45,960.04
2019,10,16,01,46,960.04
2019,10,16,01,47,960.04
2019,10,16,01,48,960.04
2019,10,16,01,49,960.04
2019,10,16,01,50,960.04
2019,10,16,01,51,960.04
2019,10,16,01,52,960.04
2019,10,16,01,53,960.04
2019,10,16,01,54,960.04
2019,10,16,01,55,960.04
2019,10,16,01,56,960.04
2019,10,16,01,57,960.04
2019,10,16,01,58,960.04
2019,10,16,01,59,960.04
2019,10,16,02,00,960.04
2019,10,16,02,01,960.04
2019,10,16,02,02,960.04
2019,10,16,02,03,960.04
2019,10,16,02,04,960.04
2019,10,16,02,05,960.04
2019,10,16,02,06,960.04
2019,10,16,02,07,960.04
2019,10,16,02,08,960.04
2019,10,16,02,09,960.04
2019,10,16,02,10,960.04
2019,10,16,02,11,960.04
2019,10,16,02,12,960.04
2019,10,16,02,13,960.04
2019,10,16,02,14,960.04
2019,10,16,02,15,960.04
2019,10,16,02,16,960.04
2019,10,16,02,17,960.04
2019,10,16,02,18,960.04
2019,10,16,02,19,960.04
2019,10,16,02,20,960.04
2019,10,16,02,21,960.04
2019,10,16,02,22,960.04
2019,10,16,02,23,960.04
2019,10,16,02,24,960.04
2019,10,16,02,25,960.04
2019,10,16,02,26,960.04
2019,10,16,02,27,960.04
2019,10,16,02,28,960.04
2019,10,16,02,29,960.04
2019,10,16,02,30,960.04
2019,10,16,02,31,960.04
2019,10,16,02,32,960.04
2019,10,16,02,33,960.04
2019,10,16,02,34,960.04
2019,10,16,02,35,960.04
2019,10,16,02,36,960.04
2019,10,16,02,37,960.04
2019,10,16,02,38,960.04
2019,10,16,02,39,960.04
2019,10,16,02,40,960.04
2019,10,16,02,41,960.04
2019,10,16,02,42,960.04
2019,10,16,02,43,960.04
2019,10,16,02,44,960.04
2019,10,16,02,45,960.04
2019,10,16,02,46,960.04
2019,10,16,02,47,960.04
2019,10,16,02,48,960.04
2019,10,16,02,49,960.04
2019,10,16,02,50,960.04
2019,10,16,02,51,960.04
2019,10,16,02,52,960.04
2019,10,16,02,53,960.04
2019,10,16,02,54,960.04
2019,10,16,02,55,960.04
2019,10,16,02,56,960.04
2019,10,16,02,57,960.04
2019,10,16,02,58,960.04
2019,10,16,02,59,960.04
2019,10,16,03,00,960.04
2019,10,16,03,01,960.04
2019,10,16,03,02,960.04
2019,10,16,03,03,960.04
2019,10,16,03,04,960.04
2019,10,16,03,05,960.04
2019,10,16,03,06,960.04
2019,10,16,03,07,960.04
2019,10,16,03,08,960.04
2019,10,16,03,09,960.04
2019,10,16,03,10,960.04
2019,10,16,03,11,960.04
2019,10,16,03,12,960.04
2019,10,16,03,13,960.04
2019,10,16,03,14,960.04
2019,10,16,03,15,960.04
2019,10,16,03,16,960.04
2019,10,16,03,17,960.04
2019,10,16,03,18,960.04
2019,10,16,03,19,960.04
2019,10,16,03,20,960.04
2019,10,16,03,21,960.04
2019,10,16,03,22,960.04
2019,10,16,03,23,960.04
2019,10,16,03,24,960.04
2019,10,16,03,25,960.04
2019,10,16,03,26,960.04
2019,10,16,03,27,960.04
2019,10,16,03,28,960.04
2019,10,16,03,29,960.04
2019,10,16,03,30,960.04
2019,10,16,03,31,960.04
2019,10,16,03,32,960.04
2019,10,16,03,33,960.04
2019,10,16,03,34,960.04
2019,10,16,03,35,960.04
2019,10,16,03,36,960.04
2019,10,16,03,37,960.04
2019,10,16,03,38,960.04
2019,10,16,03,39,960.04
2019,10,16,03,40,960.04
2019,10,16,03,41,960.04
2019,10,16,03,42,960.04
2019,10,16,03,43,960.04
2019,10,16,03,44,960.04
2019,10,16,03,45,960.04
2019,10,16,03,46,960.04
2019,10,16,03,47,960.04
2019,10,16,03,48,960.04
2019,10,16,03,49,960.04
2019,10,16,03,50,960.04
2019,10,16,03,51,960.04
2019,10,16,03,52,960.04
2019,10,16,03,53,960.04
2019,10,16,03,54,960.04
2019,10,16,03,55,960.04
2019,10,16,03,56,960.04
2019,10,16,03,57,960.04
2019,10,16,03,58,960.04
2019,10,16,03,59,960.04
2019,10,16,04,00,960.04
2019,10,16,04,01,960.04
2019,10,16,04,02,960.04
2019,10,16,04,03,960.04
2019,10,16,04,04,960.04
2019,10,16,04,08,960.04
2019,10,16,04,09,960.04
2019,10,16,04,10,960.04
2019,10,16,04,11,960.04
2019,10,16,04,12,960.04
2019,10,16,04,13,960.04
2019,10,16,04,14,960.04
2019,10,16,04,15,960.04
2019,10,16,04,16,960.04
2019,10,16,04,17,960.04
2019,10,16,04,18,960.04
2019,10,16,04,19,960.04
2019,10,16,04,20,960.04
2019,10,16,04,21,960.04
2019,10,16,04,22,960.04
2019,10,16,04,23,960.04
2019,10,16,04,24,960.04
2019,10,16,04,25,960.04
2019,10,16,04,26,960.04
2019,10,16,04,27,960.04
2019,10,16,04,28,960.04
2019,10,16,04,29,960.04
2019,10,16,04,30,960.04
2019,10,16,04,31,960.04
2019,10,16,04,32,960.04
2019,10,16,04,33,960.04
2019,10,16,04,34,960.04
2019,10,16,04,35,960.04
2019,10,16,04,36,960.04
2019,10,16,04,37,960.04
2019,10,16,04,38,960.04
2019,10,16,04,39,960.04
2019,10,16,04,40,960.04
2019,10,16,04,41,960.04
2019,10,16,04,42,960.04
2019,10,16,04,43,960.04
2019,10,16,04,44,960.04
2019,10,16,04,45,960.04
2019,10,16,04,46,960.04
2019,10,16,04,47,960.04
2019,10,16,04,48,960.04
2019,10,16,04,49,960.04
2019,10,16,04,50,960.04
2019,10,16,04,51,960.04
2019,10,16,04,52,960.04
2019,10,16,04,53,960.04
2019,10,16,04,54,960.04
2019,10,16,04,55,960.04
2019,10,16,04,56,960.04
2019,10,16,04,57,960.04
2019,10,16,04,58,960.04
2019,10,16,04,59,960.04
2019,10,16,05,00,960.04
2019,10,16,05,01,960.04
2019,10,16,05,02,960.04
2019,10,16,05,03,960.04
2019,10,16,05,04,960.04
2019,10,16,05,05,960.04
2019,10,16,05,06,960.04
2019,10,16,05,07,960.04
2019,10,16,05,08,960.04
2019,10,16,05,09,960.04
2019,10,16,05,10,960.04
2019,10,16,05,11,960.04
2019,10,16,05,12,960.04
2019,10,16,05,13,960.04
2019,10,16,05,14,960.04
2019,10,16,05,15,960.04
2019,10,16,05,16,960.04
2019,10,16,05,17,960.04
2019,10,16,05,18,960.04
2019,10,16,05,19,960.04
2019,10,16,05,20,960.04
2019,10,16,05,21,960.04
2019,10,16,05,22,960.04
2019,10,16,05,23,960.04
2019,10,16,05,24,960.04
2019,10,16,05,25,960.04
2019,10,16,05,26,960.04
2019,10,16,05,27,960.04
2019,10,16,05,28,960.04
2019,10,16,05,29,960.04
2019,10,16,05,30,960.04
2019,10,16,05,31,960.04
2019,10,16,05,32,960.04
2019,10,16,05,33,960.04
2019,10,16,05,34,960.04
2019,10,16,05,35,960.04
2019,10,16,05,36,960.04
2019,10,16,05,37,960.04
2019,10,16,05,38,960.04
2019,10,16,05,39,960.04
2019,10,16,05,40,960.04
2019,10,16,05,41,960.04
2019,10,16,05,42,960.04
2019,10,16,05,43,960.04
2019,10,16,05,44,960.04
2019,10,16,05,45,960.04
2019,10,16,05,46,960.04
2019,10,16,05,47,960.04
2019,10,16,05,48,960.04
2019,10,16,05,49,960.04
2019,10,16,05,50,960.04
2019,10,16,05,51,960.04
2019,10,16,05,52,960.04
2019,10,16,05,53,960.04
2019,10,16,05,54,960.04
2019,10,16,05,55,960.04
2019,10,16,05,56,960.04
2019,10,16,05,57,960.04
2019,10,16,05,58,960.04
2019,10,16,05,59,960.04
2019,10,16,06,00,960.04
2019,10,16,06,01,960.04
2019,10,16,06,02,960.04
2019,10,16,06,03,960.04
2019,10,16,06,04,960.04
2019,10,16,06,05,960.04
2019,10,16,06,06,960.04
2019,10,16,06,07,960.04
2019,10,16,06,08,960.04
2019,10,16,06,09,960.04
2019,10,16,06,10,960.04
2019,10,16,06,11,960.04
2019,10,16,06,12,960.04
2019,10,16,06,13,960.04
2019,10,16,06,14,960.04
2019,10,16,06,15,960.04
2019,10,16,06,16,960.04
2019,10,16,06,17,960.04
2019,10,16,06,18,960.04
2019,10,16,06,19,960.04
2019,10,16,06,20,960.04
2019,10,16,06,21,960.04
2019,10,16,06,22,960.04
2019,10,16,06,23,960.04
2019,10,16,06,24,960.04
2019,10,16,06,25,960.04
2019,10,16,06,26,960.04
2019,10,16,06,27,960.04
2019,10,16,06,28,960.04
2019,10,16,06,29,960.04
2019,10,16,06,30,960.04
2019,10,16,06,31,960.04
2019,10,16,06,32,960.04
2019,10,16,06,33,960.04
2019,10,16,06,34,960.04
2019,10,16,06,35,960.04
2019,10,16,06,36,960.04
2019,10,16,06,37,960.04
2019,10,16,06,38,960.04
2019,10,16,06,39,960.04
2019,10,16,06,40,960.04
2019,10,16,06,41,960.04
2019,10,16,06,42,960.04
2019,10,16,06,43,960.04
2019,10,16,06,44,960.04
2019,10,16,06,45,960.04
2019,10,16,06,46,960.04
2019,10,16,06,47,960.04
2019,10,16,06,48,960.04
2019,10,16,06,49,960.04
2019,10,16,06,50,960.04
2019,10,16,06,51,960.04
2019,10,16,06,52,960.04
2019,10,16,06,53,960.04
2019,10,16,06,54,960.04
2019,10,16,06,55,960.04
2019,10,16,06,56,960.04
2019,10,16,06,57,960.04
2019,10,16,06,58,960.04
2019,10,16,06,59,960.04
2019,10,16,07,00,960.04
2019,10,16,07,01,960.04
2019,10,16,07,02,960.04
2019,10,16,07,03,960.04
2019,10,16,07,04,960.04
2019,10,16,07,05,960.04
2019,10,16,07,06,960.04
2019,10,16,07,07,960.04
2019,10,16,07,08,960.04
2019,10,16,07,09,960.04
2019,10,16,07,10,960.04
2019,10,16,07,11,960.04
2019,10,16,07,12,960.04
2019,10,16,07,13,960.04
2019,10,16,07,14,960.04
2019,10,16,07,15,960.04
2019,10,16,07,16,960.04
2019,10,16,07,17,960.04
2019,10,16,07,18,960.04
2019,10,16,07,19,960.04
2019,10,16,07,20,960.04
2019,10,16,07,21,960.04
2019,10,16,07,22,960.04
2019,10,16,07,23,960.04
2019,10,16,07,24,960.04
2019,10,16,07,25,960.04
2019,10,16,07,26,960.04
2019,10,16,07,27,960.04
2019,10,16,07,28,960.04
2019,10,16,07,29,960.04
2019,10,16,07,30,960.04
2019,10,16,07,31,960.04
2019,10,16,07,32,960.04
2019,10,16,07,33,960.04
2019,10,16,07,34,960.04
2019,10,16,07,35,960.04
2019,10,16,07,36,960.04
2019,10,16,07,37,960.04
2019,10,16,07,38,960.04
2019,10,16,07,39,960.04
2019,10,16,07,40,960.04
2019,10,16,07,41,960.04
2019,10,16,07,42,960.04
2019,10,16,07,43,960.04
2019,10,16,07,44,960.04
2019,10,16,07,45,960.04
2019,10,16,07,46,960.04
2019,10,16,07,47,960.04
2019,10,16,07,48,960.04
2019,10,16,07,49,960.04
2019,10,16,07,50,960.04
2019,10,16,07,51,960.04
2019,10,16,07,52,960.04
2019,10,16,07,53,960.04
2019,10,16,07,54,960.04
2019,10,16,07,55,960.04
2019,10,16,07,56,960.04
2019,10,16,07,57,960.04
2019,10,16,07,58,960.04
2019,10,16,07,59,960.04
2019,10,16,08,00,960.04
2019,10,16,08,01,960.04
2019,10,16,08,02,960.04
2019,10,16,08,03,960.04
2019,10,16,08,04,960.04
2019,10,16,08,05,960.04
2019,10,16,08,06,960.04
2019,10,16,08,07,960.04
2019,10,16,08,08,960.04
2019,10,16,08,09,960.04
2019,10,16,08,10,960.04
2019,10,16,08,11,960.04
2019,10,16,08,12,960.04
2019,10,16,08,13,960.04
2019,10,16,08,14,960.04
2019,10,16,08,15,960.04
2019,10,16,08,16,960.04
2019,10,16,08,17,960.04
2019,10,16,08,18,960.04
2019,10,16,08,19,960.04
2019,10,16,08,20,960.04
2019,10,16,08,21,960.04
2019,10,16,08,22,960.04
2019,10,16,08,23,960.04
2019,10,16,08,24,960.04
2019,10,16,08,25,960.04
2019,10,16,08,26,960.04
2019,10,16,08,27,960.04
2019,10,16,08,28,960.04
2019,10,16,08,29,960.04
2019,10,16,08,30,960.04
2019,10,16,08,31,960.04
2019,10,16,08,32,960.04
2019,10,16,08,33,960.04
2019,10,16,08,34,960.04
2019,10,16,08,35,960.04
2019,10,16,08,36,960.04
2019,10,16,08,37,960.04
2019,10,16,08,38,960.04
2019,10,16,08,39,960.04
2019,10,16,08,40,958.62
2019,10,16,08,41,955.04
2019,10,16,08,42,955.00
2019,10,16,08,43,955.00
2019,10,16,08,44,955.00
2019,10,16,08,45,955.00
2019,10,16,08,46,955.00
2019,10,16,08,47,955.00
2019,10,16,08,48,955.00
2019,10,16,08,49,955.00
2019,10,16,08,50,955.00
2019,10,16,08,51,955.00
2019,10,16,08,52,955.00
2019,10,16,08,53,955.00
2019,10,16,08,54,955.00
2019,10,16,08,55,955.00
2019,10,16,08,56,955.00
2019,10,16,08,57,955.00
2019,10,16,08,58,955.00
2019,10,16,08,59,955.00
2019,10,16,09,00,955.00
2019,10,16,09,01,955.00
2019,10,16,09,02,955.00
2019,10,16,09,03,955.00
2019,10,16,09,04,955.00
2019,10,16,09,05,955.00
2019,10,16,09,06,955.00
2019,10,16,09,07,955.00
2019,10,16,09,08,955.00
2019,10,16,09,09,955.00
2019,10,16,09,10,955.00
2019,10,16,09,11,955.00
2019,10,16,09,12,955.00
2019,10,16,09,13,955.00
2019,10,16,09,14,954.84
2019,10,16,09,15,954.52
2019,10,16,09,16,954.52
2019,10,16,09,17,954.52
2019,10,16,09,18,954.52
2019,10,16,09,19,954.52
2019,10,16,09,20,954.52
2019,10,16,09,21,954.52
2019,10,16,09,22,954.52
2019,10,16,09,23,954.52
2019,10,16,09,24,954.52
2019,10,16,09,25,954.52
2019,10,16,09,26,954.52
2019,10,16,09,27,954.52
2019,10,16,09,28,954.52
2019,10,16,09,29,954.52
2019,10,16,09,30,954.52
2019,10,16,09,31,954.52
2019,10,16,09,32,954.52
2019,10,16,09,33,954.52
2019,10,16,09,34,954.52
2019,10,16,09,35,954.52
2019,10,16,09,36,954.52
2019,10,16,09,37,954.52
2019,10,16,09,38,954.52
2019,10,16,09,39,954.52
2019,10,16,09,40,954.52
2019,10,16,09,41,954.52
2019,10,16,09,42,954.52
2019,10,16,09,43,954.52
2019,10,16,09,44,954.52
2019,10,16,09,45,954.52
2019,10,16,09,46,954.52
2019,10,16,09,47,954.52
2019,10,16,09,48,954.52
2019,10,16,09,49,954.52
2019,10,16,09,50,954.52
2019,10,16,09,51,954.52
2019,10,16,09,52,954.52
2019,10,16,09,53,954.52
2019,10,16,09,54,954.52
2019,10,16,09,55,954.52
2019,10,16,09,56,954.52
2019,10,16,09,57,954.52
2019,10,16,09,58,954.52
2019,10,16,09,59,954.52
2019,10,16,10,00,954.52
2019,10,16,10,01,954.52
2019,10,16,10,02,954.52
2019,10,16,10,03,954.52
2019,10,16,10,04,954.52
2019,10,16,10,05,954.52
2019,10,16,10,06,954.52
2019,10,16,10,07,954.52
2019,10,16,10,08,954.52
2019,10,16,10,09,954.52
2019,10,16,10,10,954.52
2019,10,16,10,11,954.52
2019,10,16,10,12,954.52
2019,10,16,10,13,954.52
2019,10,16,10,14,954.52
2019,10,16,10,15,954.52
2019,10,16,10,16,954.52
2019,10,16,10,17,954.52
2019,10,16,10,18,954.52
2019,10,16,10,19,954.52
2019,10,16,10,20,954.52
2019,10,16,10,21,954.52
2019,10,16,10,22,954.52
2019,10,16,10,23,954.52
2019,10,16,10,24,954.52
2019,10,16,10,25,954.52
2019,10,16,10,26,954.52
2019,10,16,10,27,954.52
2019,10,16,10,28,954.52
2019,10,16,10,29,954.52
2019,10,16,10,30,954.52
2019,10,16,10,31,954.52
2019,10,16,10,32,954.52
2019,10,16,10,33,954.52
2019,10,16,10,34,954.52
2019,10,16,10,35,954.48
2019,10,16,10,36,954.43
2019,10,16,10,37,954.46
2019,10,16,10,38,954.54
2019,10,16,10,39,954.59
2019,10,16,10,40,954.59
2019,10,16,10,41,954.59
2019,10,16,10,42,954.59
2019,10,16,10,43,954.59
2019,10,16,10,44,954.59
2019,10,16,10,45,954.59
2019,10,16,10,46,954.59
2019,10,16,10,47,954.59
2019,10,16,10,48,954.59
2019,10,16,10,49,954.59
2019,10,16,10,50,954.59
2019,10,16,10,51,954.43
2019,10,16,10,52,954.32
2019,10,16,10,53,954.32
2019,10,16,10,54,954.32
2019,10,16,10,55,954.32
2019,10,16,10,56,954.32
2019,10,16,10,57,954.32
2019,10,16,10,58,954.32
2019,10,16,10,59,954.32
2019,10,16,11,00,954.32
2019,10,16,11,01,954.32
2019,10,16,11,02,954.32
2019,10,16,11,03,954.09
2019,10,16,11,04,953.91
2019,10,16,11,05,953.91
2019,10,16,11,06,953.91
2019,10,16,11,07,953.91
2019,10,16,11,08,953.91
2019,10,16,11,09,953.91
2019,10,16,11,10,953.91
2019,10,16,11,11,953.91
2019,10,16,11,12,953.91
2019,10,16,11,13,953.91
2019,10,16,11,14,953.91
2019,10,16,11,15,953.91
2019,10,16,11,16,953.91
2019,10,16,11,17,953.91
2019,10,16,11,18,953.91
2019,10,16,11,19,953.91
2019,10,16,11,20,953.91
2019,10,16,11,21,953.91
2019,10,16,11,22,953.91
2019,10,16,11,23,953.91
2019,10,16,11,24,953.91
2019,10,16,11,25,953.91
2019,10,16,11,26,953.91
2019,10,16,11,27,953.91
2019,10,16,11,28,953.91
2019,10,16,11,29,953.91
2019,10,16,11,30,953.91
2019,10,16,11,31,953.91
2019,10,16,11,32,953.91
2019,10,16,11,33,953.91
2019,10,16,11,34,953.91
2019,10,16,11,35,953.91
2019,10,16,11,36,953.91
2019,10,16,11,37,953.91
2019,10,16,11,38,953.91
2019,10,16,11,39,953.91
2019,10,16,11,40,953.91
2019,10,16,11,41,953.91
2019,10,16,11,42,953.91
2019,10,16,11,43,947.77
2019,10,16,11,44,945.14
2019,10,16,11,45,945.14
2019,10,16,11,46,945.14
2019,10,16,11,47,945.14
2019,10,16,11,48,945.14
2019,10,16,11,49,945.14
2019,10,16,11,50,945.14
2019,10,16,11,51,945.14
2019,10,16,11,52,945.14
2019,10,16,11,53,945.14
2019,10,16,11,54,945.14
2019,10,16,11,55,945.14
2019,10,16,11,56,945.14
2019,10,16,11,57,945.14
2019,10,16,11,58,945.14
2019,10,16,11,59,945.14
2019,10,16,12,00,945.14
2019,10,16,12,01,945.14
2019,10,16,12,02,945.14
2019,10,16,12,03,945.14
2019,10,16,12,04,945.14
2019,10,16,12,05,945.14
2019,10,16,12,06,945.14
2019,10,16,12,07,945.14
2019,10,16,12,08,945.14
2019,10,16,12,09,945.14
2019,10,16,12,10,945.14
2019,10,16,12,11,945.14
2019,10,16,12,12,945.14
2019,10,16,12,13,945.14
2019,10,16,12,14,945.14
2019,10,16,12,15,945.14
2019,10,16,12,16,945.14
2019,10,16,12,17,945.14
2019,10,16,12,18,945.14
2019,10,16,12,19,945.14
2019,10,16,12,20,945.14
2019,10,16,12,21,945.14
2019,10,16,12,22,945.14
2019,10,16,12,23,945.14
2019,10,16,12,24,945.14
2019,10,16,12,25,945.14
2019,10,16,12,26,945.14
2019,10,16,12,27,945.14
2019,10,16,12,28,945.14
2019,10,16,12,29,945.14
2019,10,16,12,30,945.14
2019,10,16,12,31,945.14
2019,10,16,12,32,945.14
2019,10,16,12,33,945.14
2019,10,16,12,34,945.14
2019,10,16,12,35,945.14
2019,10,16,12,36,945.14
2019,10,16,12,37,945.14
2019,10,16,12,38,945.14
2019,10,16,12,39,945.14
2019,10,16,12,40,945.14
2019,10,16,12,41,945.14
2019,10,16,12,42,945.14
2019,10,16,12,43,945.14
2019,10,16,12,44,945.14
2019,10,16,12,45,945.14
2019,10,16,12,46,945.14
2019,10,16,12,47,945.14
2019,10,16,12,48,945.14
2019,10,16,12,49,945.14
2019,10,16,12,50,945.14
2019,10,16,12,51,945.14
2019,10,16,12,52,945.14
2019,10,16,12,53,945.14
2019,10,16,12,54,945.14
2019,10,16,12,55,945.14
2019,10,16,12,56,945.14
2019,10,16,12,57,945.14
2019,10,16,12,58,945.14
2019,10,16,12,59,945.14
2019,10,16,13,00,945.14
2019,10,16,13,01,945.14
2019,10,16,13,02,945.14
2019,10,16,13,03,945.14
2019,10,16,13,04,945.14
2019,10,16,13,05,945.14
2019,10,16,13,06,945.14
2019,10,16,13,07,945.14
2019,10,16,13,08,945.14
2019,10,16,13,09,945.14
2019,10,16,13,10,945.14
2019,10,16,13,11,945.14
2019,10,16,13,12,945.14
2019,10,16,13,13,945.14
2019,10,16,13,14,945.14
2019,10,16,13,15,945.14
2019,10,16,13,16,945.14
2019,10,16,13,17,945.14
2019,10,16,13,18,945.14
2019,10,16,13,19,945.14
2019,10,16,13,20,945.14
2019,10,16,13,21,945.14
2019,10,16,13,22,945.14
2019,10,16,13,23,945.14
2019,10,16,13,24,945.14
2019,10,16,13,25,945.14
2019,10,16,13,26,945.14
2019,10,16,13,27,945.14
2019,10,16,13,28,945.14
2019,10,16,13,29,945.14
2019,10,16,13,30,945.14
2019,10,16,13,31,945.14
2019,10,16,13,32,945.14
2019,10,16,13,33,945.14
2019,10,16,13,34,945.14
2019,10,16,13,35,945.14
2019,10,16,13,36,945.14
2019,10,16,13,37,945.14
2019,10,16,13,38,945.14
2019,10,16,13,39,945.14
2019,10,16,13,40,945.14
2019,10,16,13,41,945.14
2019,10,16,13,42,945.14
2019,10,16,13,43,945.14
2019,10,16,13,44,945.14
2019,10,16,13,45,945.14
2019,10,16,13,46,945.14
2019,10,16,13,47,945.14
2019,10,16,13,48,945.14
2019,10,16,13,49,945.14
2019,10,16,13,50,945.14
2019,10,16,13,51,945.14
2019,10,16,13,52,945.14
2019,10,16,13,53,945.14
2019,10,16,13,54,945.14
2019,10,16,13,55,945.14
2019,10,16,13,56,945.14
2019,10,16,13,57,945.14
2019,10,16,13,58,945.14
2019,10,16,13,59,945.14
2019,10,16,14,00,945.47
2019,10,16,14,01,952.35
2019,10,16,14,02,952.35
2019,10,16,14,03,952.35
2019,10,16,14,04,952.35
2019,10,16,14,05,952.35
2019,10,16,14,06,952.35
2019,10,16,14,07,952.35
2019,10,16,14,08,952.35
2019,10,16,14,09,952.35
2019,10,16,14,10,952.35
2019,10,16,14,11,952.35
2019,10,16,14,12,952.35
2019,10,16,14,13,952.35
2019,10,16,14,14,952.35
2019,10,16,14,15,952.35
2019,10,16,14,16,952.35
2019,10,16,14,17,952.35
2019,10,16,14,18,952.35
2019,10,16,14,19,952.35
2019,10,16,14,20,952.35
2019,10,16,14,21,952.42
2019,10,16,14,22,952.42
2019,10,16,16,06,1042.26
2019,10,16,16,07,1042.26
2019,10,16,16,08,1042.26
2019,10,16,16,09,1042.26
2019,10,16,16,10,1042.26
2019,10,16,16,11,1042.26
2019,10,16,16,12,1042.26
2019,10,16,16,13,1042.26
2019,10,16,16,14,1042.26
2019,10,16,16,15,1042.26
2019,10,16,16,16,1042.26
2019,10,16,16,17,1042.26
2019,10,16,16,18,1042.26
2019,10,16,16,19,1042.26
2019,10,16,16,20,1042.26
2019,10,16,16,21,1042.26
2019,10,16,16,22,1042.26
2019,10,16,16,23,1042.26
2019,10,16,16,24,1042.26
2019,10,16,16,25,1042.26
2019,10,16,16,26,1042.26
2019,10,16,16,27,1042.26
2019,10,16,16,28,1042.26
2019,10,16,16,29,1042.26
2019,10,16,16,30,1042.26
2019,10,16,16,31,1042.26
2019,10,16,16,32,1042.26
2019,10,16,16,33,1042.26
2019,10,16,16,34,1042.26
2019,10,16,16,35,1042.26
2019,10,16,16,36,1042.26
2019,10,16,16,37,1042.26
2019,10,16,16,38,1042.26
2019,10,16,16,39,1042.26
2019,10,16,16,40,1042.26
2019,10,16,16,41,1042.26
2019,10,16,16,42,1042.26
2019,10,16,16,43,1042.26
2019,10,16,16,44,1042.26
2019,10,16,16,45,1042.26
2019,10,16,16,46,1042.26
2019,10,16,16,47,1042.26
2019,10,16,16,48,999.48
2019,10,16,16,49,952.47
2019,10,16,16,50,952.52
2019,10,16,16,51,952.52
2019,10,16,16,52,952.52
2019,10,16,16,53,952.52
2019,10,16,16,54,952.52
2019,10,16,16,55,952.52
2019,10,16,16,56,952.52
2019,10,16,16,57,952.52
2019,10,16,16,58,952.52
2019,10,16,16,59,952.52
2019,10,16,17,00,952.52
2019,10,16,17,01,952.52
2019,10,16,17,02,952.52
2019,10,16,17,03,952.52
2019,10,16,17,04,952.52
2019,10,16,17,05,952.52
2019,10,16,17,06,952.52
2019,10,16,17,07,952.52
2019,10,16,17,08,952.52
2019,10,16,17,09,952.52
2019,10,16,17,10,952.52
2019,10,16,17,11,952.52
2019,10,16,17,12,952.52
2019,10,16,17,13,952.52
2019,10,16,17,14,952.52
2019,10,16,17,15,952.52
2019,10,16,17,16,952.52
2019,10,16,17,17,952.52
2019,10,16,17,18,952.52
2019,10,16,17,19,952.52
2019,10,16,17,20,952.52
2019,10,16,17,21,952.52
2019,10,16,17,22,952.52
2019,10,16,17,23,952.52
2019,10,16,17,24,952.52
2019,10,16,17,25,952.52
2019,10,16,17,26,952.52
2019,10,16,17,27,952.52
2019,10,16,17,28,952.52
2019,10,16,17,29,952.52
2019,10,16,17,30,952.52
2019,10,16,17,31,952.52
2019,10,16,17,32,952.52
2019,10,16,17,33,952.52
2019,10,16,17,34,952.52
2019,10,16,17,35,952.52
2019,10,16,17,36,952.52
2019,10,16,17,37,952.52
2019,10,16,17,38,952.52
2019,10,16,17,39,952.52
2019,10,16,17,40,952.52
2019,10,16,17,41,952.52
2019,10,16,17,42,952.52
2019,10,16,17,43,952.52
2019,10,16,17,44,952.52
2019,10,16,17,45,952.52
2019,10,16,17,46,952.52
2019,10,16,17,47,952.52
2019,10,16,17,48,952.52
2019,10,16,17,49,952.52
2019,10,16,17,50,952.52
2019,10,16,17,51,952.52
2019,10,16,17,52,952.52
2019,10,16,17,53,952.52
2019,10,16,17,54,952.52
2019,10,16,17,55,952.52
2019,10,16,17,56,952.52
2019,10,16,17,57,952.52
2019,10,16,17,58,952.52
2019,10,16,17,59,952.52
2019,10,16,18,00,952.52
2019,10,16,18,01,952.52
2019,10,16,18,02,952.52
2019,10,16,18,03,952.52
2019,10,16,18,04,952.52
2019,10,16,18,05,952.52
2019,10,16,18,06,952.52
2019,10,16,18,07,952.52
2019,10,16,18,08,952.52
2019,10,16,18,09,952.52
2019,10,16,18,10,952.52
2019,10,16,18,11,952.52
2019,10,16,18,12,952.52
2019,10,16,18,13,952.52
2019,10,16,18,14,952.52
2019,10,16,18,15,952.52
2019,10,16,18,16,952.52
2019,10,16,18,17,952.52
2019,10,16,18,18,952.52
2019,10,16,18,19,952.52
2019,10,16,18,20,952.52